Regional Weather Roundup
Issued by NWS

Home | Current Version | Previous Version | Graphics & Text | Print | Product List | Glossary On
Versions: 1 2 3 4 5 6 7 8 9 10 11 12 13 14 15 16 17 18 19 20 21 22 23 24 25 26 27 28 29 30 31 32 33 34 35 36 37 38 39 40 41 42 43 44 45 46 47 48 49 50
000
ASUS45 KTFX 172219
RWRMT
MONTANA HOURLY WEATHER ROUNDUP
NATIONAL WEATHER SERVICE GREAT FALLS MT
319 PM MST WED DEC 17 2014

NOTE: "FAIR" INDICATES FEW OR NO CLOUDS BELOW 12000 FEET WITH NO
SIGNIFICANT WEATHER AND/OR OBSTRUCTIONS TO VISIBILITY.

* THESE STATIONS ARE NOT UNDER NWS QUALITY CONTROL. THEY DO NOT
   REPORT WEATHER SUCH AS PRECIPITATION OR FOG.

MTZ001>007-043-172300-
WEST OF THE DIVIDE
CITY           SKY/WX    TMP DP  RH WIND       PRES   REMARKS
KALISPELL      PTSUNNY   34  25  70 CALM      29.94S
MISSOULA       PTCLDY    36  25  64 CALM      29.93F
BUTTE          SUNNY     32  21  64 E3        29.89S
MULLAN PASS    PTSUNNY   28  27  96 S6        29.84R WCI  21
* ANACONDA     SUNNY     37  21  52 S14        N/A   WCI  28
* ESSEX        N/A       32  26  79 SE1        N/A
* EUREKA APT   PTCLDY    32  23  69 CALM      29.97F
* HAMILTON APT PTCLDY    37  25  62 N6        29.90F WCI  32
* LIBBY APT    PTSUNNY   37  27  67 CALM      29.95S
* LINCOLN      N/A       40  27  60 SW4G9      N/A
* LOOKOUT PASS N/A       32  26  79 S4         N/A
* POLSON       N/A       32  29  89 SW1        N/A
* RONAN APT    PTCLDY    34  28  79 N/A        N/A
* SEELEY LAKE  N/A       38  27  65 N/A        N/A
* THOMP F APT  PTSUNNY   28  21  75 SE2        N/A
$$

MTZ008-052>055-172300-
SOUTHWEST MONTANA
CITY           SKY/WX    TMP DP  RH WIND       PRES   REMARKS
BOZEMAN        CLOUDY    36  28  73 CALM      29.91S
DILLON         SUNNY     32  23  69 S6        29.90S WCI  26
* W YELLOWSTON PTCLDY    28  23  81 SW4G12     N/A
* THREE FORKS  PTCLDY    36  16  44 N/A        N/A
* BOULDER HILL N/A       31  22  69 S8         N/A   WCI  24
* MONIDA PASS  N/A       25  20  81 SE12       N/A   WCI  14
* RAYNOLDS PAS N/A       28  11  49 S6         N/A   WCI  21
* WHITEHALL    N/A       39  30  70 SW5        N/A   WCI  35
* WISE RIVER   N/A       33  21  61 N/A        N/A
$$

MTZ009>010-012-014-046-048-049-054-172300-
EAST SLOPES AND CENTRAL MONTANA
CITY           SKY/WX    TMP DP  RH WIND       PRES   REMARKS
CUT BANK       FOG       19  18  96 E3        29.84S VSB M1/4
GREAT FALLS    PTCLDY    39  28  65 SW13      29.84S WCI  31
HELENA         SUNNY     36  27  70 CALM      29.90F
MALMSTROM AFB  PTCLDY    39  32  76 SW10      29.86F WCI  32
* CONRAD       SUNNY     25  25 100 CALM       N/A
* DEARBORN     N/A       39  29  67 S9         N/A   WCI  33
* EAST GLACIER N/A       35  23  62 W20G25     N/A   WCI  24
* MONARCH      N/A       34  17  50 SW8G14     N/A   WCI  27
* PENDROY      N/A       38  27  65 N/A        N/A
* ROGERS PASS  N/A       32  24  72 E9G19      N/A   WCI  24
* WHITE SULPH  N/A       40  30  68 W2         N/A
$$

MTZ011-013-016-021-035-040-045-047-050-051-172300-
NORTH CENTRAL MONTANA
CITY           SKY/WX    TMP DP  RH WIND       PRES   REMARKS
HAVRE          CLOUDY    27  25  92 E8        29.91F WCI  19
LEWISTOWN      CLOUDY    37  30  76 CALM      29.86S
* N BAR RANCH  CLOUDY    36  28  73 W8        29.87S WCI  30
* CHINOOK      CLOUDY    28  23  81 E8        29.93S WCI  20
* CHESTER      N/A       31  25  78 S3         N/A
* DENTON       N/A       33  32  96 E3         N/A
* GEYSER       N/A       37  26  64 N4G11      N/A
* JUDITH GAP   N/A       32  32 100 NE2        N/A
* LOMA         N/A       31  28  89 NE8        N/A   WCI  24
$$

MTZ017>020-022>027-061-062-172300-
NORTHEAST MONTANA
CITY           SKY/WX    TMP DP  RH WIND       PRES   REMARKS
GLASGOW        CLOUDY    23  18  81 E14       29.99S WCI  10
GLENDIVE       CLOUDY    21  16  81 SE7       30.03S WCI  12
JORDAN         PTCLDY    27  21  78 SE8       29.95S WCI  19
SIDNEY         CLOUDY    21  18  88 SE10      30.09F WCI  10
WOLF POINT     CLOUDY    25  18  75 E8        30.05S WCI  16
* BEAVER HILL  N/A       20  18  92 SE10       N/A   WCI   9
* CIRCLE       N/A       24  21  88 SE6        N/A   WCI  17
* LINDSAY DVD  N/A       20  18  92 SE4        N/A
* NAVAJO       N/A       16  14  92 S10        N/A   WCI   4
* PLENTYWOOD A PTSUNNY   18  16  92 SE12      30.06F WCI   5
* POPLAR APT   CLOUDY    21  18  88 E8        30.05F WCI  11
* SACO         N/A       24  19  81 E11        N/A   WCI  13
$$

MTZ028>042-056>058-172300-
SOUTHCENTRAL AND SOUTHEAST MONTANA
CITY           SKY/WX    TMP DP  RH WIND       PRES   REMARKS
BAKER          CLOUDY    19  18  96 SE13      30.01R WCI   6
BILLINGS       PTSUNNY   34  25  70 SW14      29.90S WCI  24
LIVINGSTON     CLOUDY    39  25  57 W12       29.88S WCI  32
MILES CITY     CLOUDY    27  21  78 SE8       29.98S WCI  19
* FORSYTH APT  SUNNY     27  23  85 E5        29.96S WCI  21
* LAUREL APT   PTCLDY    36  19  50 S8         N/A   WCI  30
* ROUNDUP APT  PTSUNNY   34  27  76 S5         N/A   WCI  29
* ALZADA       N/A       19  17  92 E1         N/A
* HYSHAM       N/A       28  20  72 W6         N/A   WCI  21
* LAME DEER    N/A       27  27 100 N/A        N/A
* REED POINT   N/A       36  29  76 E3         N/A
* ROSCOE HILL  N/A       33  18  54 E6         N/A   WCI  27
$$

REGIONAL REPORTS...DAKOTAS
CITY           SKY/WX    TMP DP  RH WIND       PRES   REMARKS
WILLISTON      CLOUDY    19  12  74 SE13      30.11R WCI   6
DICKINSON      CLOUDY    18  12  77 SE12      30.05S WCI   5
BEACH          CLOUDY    19  19 100 SE13      30.03S WCI   6
CROSBY         CLOUDY    18  16  92 SE9       30.12S WCI   7
TIOGA          CLOUDY    16  16 100 S12       30.12F WCI   3
WATFORD CITY   CLOUDY    18  14  84 SE13      30.08S WCI   5
BISMARCK       PTCLDY    18  10  71 SE12      30.21R WCI   5
GRAND FORKS    SUNNY     18  10  71 NE3       30.34R
FARGO          SUNNY     19  10  68 NE7       30.31S WCI  10
BUFFALO SD     PTCLDY    19  16  88 SE9       29.94S WCI   8
RAPID CITY     CLOUDY    23  19  85 E7        29.98R WCI  15
$$

REGIONAL REPORTS...WYOMING/IDAHO/WASHINGTON
CITY           SKY/WX    TMP DP  RH WIND       PRES   REMARKS
GILLETTE       SUNNY     30  19  64 W7        29.91S WCI  23
SHERIDAN       PTCLDY    23  18  81 S3        29.93R
CODY           PTSUNNY   27  21  78 CALM      29.89R
YELLOWSTONE LA PTCLDY    25  19  78 CALM      29.93R
SALMON         PTCLDY    32  25  75 CALM      29.97S
MULLAN PASS    PTSUNNY   28  27  96 S6        29.84S WCI  21
SAND POINT     PTCLDY    37  30  76 CALM      29.94S
SPOKANE        LGT RAIN  36  32  85 NE8       29.90R WCI  30
$$

REGIONAL REPORTS...ALBERTA
CITY           SKY/WX    TMP DP  RH WIND       PRES   REMARKS
CALGARY        SUNNY     36  21  54 S6        29.77S WCI  31
LETHBRIDGE     SUNNY     36  28  73 W15       29.80S WCI  27
MEDICINE HAT   PTSUNNY   30  28  92 SW6       29.86R WCI  24
EDMONTON       CLOUDY    23  19  85 S6        29.82S WCI  16
WATERTON GATE  N/A       36  23  59 SW17G25    N/A   WCI  26
CARDSTON       N/A       28  25  89 SE3        N/A
MILK RIVER     N/A       21  21 100 S7         N/A   WCI  12
$$

REGIONAL REPORTS...SASKATCHEWAN
CITY           SKY/WX    TMP DP  RH WIND       PRES   REMARKS
SWIFT CURRENT  CLOUDY    19  19 100 S14       29.90S WCI   5
MOOSE JAW      CLOUDY    19  18  96 S10G17    30.04S WCI   8
REGINA         CLOUDY    18  14  84 SE16      30.07S WCI   3
VAL MARIE      N/A       19  19 100 S6         N/A   WCI  11
ASSINIBOIA     N/A       16  14  92 S10G17     N/A   WCI   4
CORONACH       N/A       16  14  92 SE10       N/A   WCI   4

$$



USA.gov is the U.S. government's official web portal to all federal, state and local government web resources and services.